Back to catalog

STARLINK-34983

AliveCommunicationsVLEO
NORAD 65411·PAYLOAD·🇺🇸 United States

Launched Aug 31, 2025 from Cape Canaveral Space Force Station

Loading…

Next Passes (next 24 hours)

TLE

FreshSource: CelesTrak SupGP

Epoch: Sep 14, 2026, 15:20 UTC

1 65411C 25192H   26257.63937500 -.00042444  00000+0 -13648-2 0  2571
2 65411  53.1594  72.9664 0001140  83.8325  61.9528 15.31726325    12

Track STARLINK-34983 in real time with AllMySat

Download on the App Store